User: anonymous   Login
Location: Oshawa
(43.9000°N, 78.8670°W)
Time: 11:08:57
(UTC-04:00)
Language:

Explorer 7 - Orbit

View from above orbital plane
View from above orbital plane
View from above satellite
View from above satellite

Ground track
Ground track

The orbit data is extracted from the following two-line orbital elements,

1    22U 59009A   17086.87088068 +.00000683 +00000-0 +75576-4 0  9995
2    22 050.2834 223.1705 0142360 083.0440 278.6676 14.94041478294248
Epoch (UTC): 27 March 2017 20:54:04
Eccentricity: 0.0142360
inclination: 50.2834°
perigee height: 486 km
apogee height: 684 km
right ascension of ascending node: 223.1705°
argument of perigee: 83.0440°
revolutions per day: 14.94041478
mean anomaly at epoch: 278.6676°
orbit number at epoch: 29424

The dashed part of the orbit path shows where the satellite is in the earth's shadow,  

DLR